• In United Kingdom
  • List of Countries
  • For 7 days
  • Water Temperature
  • Satellite Maps
  • Weather Map
  • Weather Widgets
  • user-avatar
    Login

    Hourly Weather Gjirokaster

    Today, 16 October, Tuesday

    Time Temperature Precipitation Wind Pressure Humidity
    00:00 +9°C° 0 mm 2 mps 655 mmHg 75%
    01:00 +8°C° 0 mm 2 mps 654 mmHg 75%
    02:00 +8°C° 0 mm 2 mps 654 mmHg 75%
    03:00 +8°C° 0 mm 2 mps 654 mmHg 75%
    04:00 +7°C° 0 mm 2 mps 654 mmHg 76%
    05:00 +8°C° 0 mm 2 mps 654 mmHg 75%
    06:00 +8°C° 0 mm 2 mps 655 mmHg 74%
    07:00 +9°C° 0 mm 2 mps 655 mmHg 73%
    08:00 +12°C° 0 mm 2 mps 655 mmHg 65%
    09:00 +14°C° 0 mm 2 mps 656 mmHg 58%
    10:00 +16°C° 0 mm 1 mps 657 mmHg 50%
    11:00 +18°C° 0 mm 1 mps 657 mmHg 48%
    12:00 +18°C° 0 mm 2 mps 657 mmHg 45%
    13:00 +18°C° 0 mm 2 mps 657 mmHg 43%
    14:00 +18°C° 0 mm 2 mps 656 mmHg 46%
    15:00 +17°C° 0 mm 2 mps 656 mmHg 48%
    16:00 +16°C° 0 mm 2 mps 655 mmHg 51%
    17:00 +15°C° 0 mm 1 mps 655 mmHg 57%
    18:00 +13°C° 0 mm 1 mps 655 mmHg 62%
    19:00 +12°C° 0 mm 1 mps 655 mmHg 68%
    20:00 +12°C° 0 mm 1 mps 655 mmHg 69%
    21:00 +11°C° 0 mm 1 mps 655 mmHg 70%
    22:00 +11°C° 0 mm 1 mps 655 mmHg 70%
    23:00 +11°C° 0 mm 1 mps 655 mmHg 71%

    Tomorrow, 17 October, Wednesday

    Time Temperature Precipitation Wind Pressure Humidity
    00:00 +10°C° 0 mm 1 mps 654 mmHg 71%
    01:00 +10°C° 0 mm 1 mps 654 mmHg 71%
    02:00 +10°C° 0 mm 1 mps 654 mmHg 72%
    03:00 +10°C° 0 mm 1 mps 654 mmHg 72%
    04:00 +9°C° 0 mm 1 mps 653 mmHg 72%
    05:00 +9°C° 0 mm 2 mps 653 mmHg 71%
    06:00 +9°C° 0 mm 2 mps 654 mmHg 70%
    07:00 +9°C° 0 mm 2 mps 654 mmHg 69%
    08:00 +13°C° 0 mm 1 mps 654 mmHg 61%
    09:00 +15°C° 0 mm 1 mps 655 mmHg 52%
    10:00 +18°C° 0 mm 1 mps 655 mmHg 44%
    11:00 +19°C° 0 mm 1 mps 655 mmHg 42%
    12:00 +19°C° 0 mm 1 mps 655 mmHg 40%
    13:00 +19°C° 0 mm 2 mps 654 mmHg 38%
    14:00 +18°C° 0 mm 2 mps 654 mmHg 42%
    15:00 +18°C° 0 mm 2 mps 654 mmHg 46%
    16:00 +17°C° 0 mm 2 mps 653 mmHg 49%
    17:00 +15°C° 0 mm 1 mps 653 mmHg 54%
    18:00 +14°C° 0 mm 1 mps 653 mmHg 59%
    19:00 +12°C° 0 mm 1 mps 653 mmHg 64%
    20:00 +12°C° 0 mm 1 mps 653 mmHg 64%
    21:00 +12°C° 0 mm 1 mps 653 mmHg 64%
    22:00 +11°C° 0 mm 1 mps 653 mmHg 64%
    23:00 +11°C° 0 mm 1 mps 652 mmHg 64%

    Day after tomorrow, 18 October, Thursday

    Time Temperature Precipitation Wind Pressure Humidity
    00:00 +9°C° 0 mm 2 mps 652 mmHg 64%
    01:00 +9°C° 0 mm 2 mps 652 mmHg 63%
    02:00 +9°C° 0 mm 2 mps 652 mmHg 64%
    03:00 +9°C° 0 mm 2 mps 652 mmHg 64%
    04:00 +8°C° 0 mm 2 mps 651 mmHg 64%
    05:00 +9°C° 0 mm 2 mps 651 mmHg 63%
    06:00 +9°C° 0 mm 2 mps 652 mmHg 63%
    07:00 +9°C° 0 mm 2 mps 652 mmHg 62%
    08:00 +13°C° 0 mm 2 mps 652 mmHg 55%
    09:00 +15°C° 0 mm 2 mps 653 mmHg 48%
    10:00 +18°C° 0 mm 1 mps 653 mmHg 40%
    11:00 +19°C° 0 mm 1 mps 653 mmHg 38%
    12:00 +20°C° 0 mm 1 mps 653 mmHg 36%
    13:00 +19°C° 0 mm 2 mps 653 mmHg 34%
    14:00 +20°C° 0 mm 1 mps 653 mmHg 38%
    15:00 +19°C° 0 mm 1 mps 653 mmHg 41%
    16:00 +18°C° 0 mm 1 mps 652 mmHg 45%
    17:00 +16°C° 0 mm 1 mps 652 mmHg 49%
    18:00 +14°C° 0 mm 1 mps 652 mmHg 54%
    19:00 +12°C° 0 mm 1 mps 652 mmHg 58%
    20:00 +12°C° 0 mm 1 mps 652 mmHg 59%
    21:00 +12°C° 0 mm 1 mps 652 mmHg 60%
    22:00 +11°C° 0 mm 1 mps 653 mmHg 61%
    23:00 +11°C° 0 mm 1 mps 652 mmHg 62%

    19 October, Friday

    Time Temperature Precipitation Wind Pressure Humidity
    00:00 +11°C° 0 mm 1 mps 652 mmHg 62%
    01:00 +10°C° 0 mm 2 mps 652 mmHg 63%
    02:00 +9°C° 0 mm 2 mps 652 mmHg 63%
    03:00 +9°C° 0 mm 2 mps 652 mmHg 64%
    04:00 +9°C° 0 mm 2 mps 652 mmHg 64%
    05:00 +9°C° 0 mm 2 mps 652 mmHg 63%
    06:00 +10°C° 0 mm 2 mps 652 mmHg 62%
    07:00 +10°C° 0 mm 2 mps 652 mmHg 61%
    08:00 +13°C° 0 mm 1 mps 653 mmHg 54%
    09:00 +16°C° 0 mm 1 mps 654 mmHg 47%
    10:00 +19°C° 0 mm 1 mps 654 mmHg 39%
    11:00 +20°C° 0 mm 1 mps 654 mmHg 38%
    12:00 +20°C° 0 mm 1 mps 654 mmHg 36%
    13:00 +21°C° 0 mm 1 mps 654 mmHg 34%
    14:00 +19°C° 0 mm 2 mps 654 mmHg 38%
    15:00 +19°C° 0 mm 2 mps 654 mmHg 41%
    16:00 +18°C° 0 mm 2 mps 653 mmHg 44%
    17:00 +16°C° 0 mm 2 mps 653 mmHg 47%
    18:00 +15°C° 0 mm 2 mps 653 mmHg 51%
    19:00 +13°C° 0 mm 2 mps 653 mmHg 54%
    20:00 +13°C° 0 mm 2 mps 653 mmHg 54%
    21:00 +13°C° 0 mm 2 mps 653 mmHg 55%
    22:00 +13°C° 0 mm 2 mps 653 mmHg 55%
    23:00 +12°C° 0 mm 2 mps 653 mmHg 55%

    20 October, Saturday

    Time Temperature Precipitation Wind Pressure Humidity
    00:00 +12°C° 0 mm 2 mps 653 mmHg 56%
    01:00 +12°C° 0 mm 2 mps 653 mmHg 56%
    02:00 +12°C° 0 mm 2 mps 653 mmHg 57%
    03:00 +10°C° 0 mm 2 mps 653 mmHg 57%
    04:00 +10°C° 0 mm 2 mps 653 mmHg 58%
    05:00 +10°C° 0 mm 2 mps 653 mmHg 58%
    06:00 +12°C° 0 mm 2 mps 653 mmHg 58%
    07:00 +12°C° 0 mm 2 mps 653 mmHg 58%
    08:00 +14°C° 0 mm 2 mps 654 mmHg 52%
    09:00 +16°C° 0 mm 2 mps 655 mmHg 45%
    10:00 +20°C° 0 mm 1 mps 655 mmHg 39%
    11:00 +19°C° 0 mm 2 mps 655 mmHg 36%
    12:00 +20°C° 0 mm 2 mps 655 mmHg 34%
    13:00 +21°C° 0 mm 3 mps 655 mmHg 32%
    14:00 +20°C° 0 mm 3 mps 655 mmHg 36%
    15:00 +19°C° 0 mm 3 mps 655 mmHg 39%
    16:00 +19°C° 0 mm 3 mps 654 mmHg 42%
    17:00 +17°C° 0 mm 3 mps 654 mmHg 45%
    18:00 +14°C° 0 mm 3 mps 654 mmHg 49%
    19:00 +13°C° 0 mm 3 mps 654 mmHg 53%
    20:00 +12°C° 0 mm 3 mps 654 mmHg 54%
    21:00 +12°C° 0 mm 3 mps 654 mmHg 54%
    22:00 +11°C° 0 mm 3 mps 654 mmHg 55%
    23:00 +11°C° 0 mm 3 mps 654 mmHg 56%

    21 October, Sunday

    Time Temperature Precipitation Wind Pressure Humidity
    00:00 +10°C° 0 mm 2 mps 654 mmHg 57%
    01:00 +10°C° 0 mm 2 mps 654 mmHg 58%
    02:00 +10°C° 0 mm 2 mps 654 mmHg 60%
    03:00 +9°C° 0 mm 2 mps 654 mmHg 61%
    04:00 +9°C° 0 mm 2 mps 653 mmHg 63%
    05:00 +9°C° 0 mm 2 mps 654 mmHg 63%
    06:00 +9°C° 0 mm 2 mps 654 mmHg 63%
    07:00 +9°C° 0 mm 2 mps 654 mmHg 63%
    08:00 +12°C° 0 mm 2 mps 655 mmHg 57%
    09:00 +14°C° 0 mm 2 mps 655 mmHg 50%
    10:00 +16°C° 0 mm 2 mps 656 mmHg 43%
    11:00 +16°C° 0 mm 2 mps 655 mmHg 42%
    12:00 +17°C° 0 mm 2 mps 655 mmHg 41%
    13:00 +18°C° 0 mm 2 mps 655 mmHg 39%
    14:00 +17°C° 0 mm 2 mps 655 mmHg 42%
    15:00 +16°C° 0 mm 3 mps 655 mmHg 45%
    16:00 +16°C° 0 mm 3 mps 654 mmHg 48%
    17:00 +14°C° 0 mm 3 mps 654 mmHg 49%
    18:00 +13°C° 0 mm 3 mps 654 mmHg 51%
    19:00 +12°C° 0 mm 3 mps 654 mmHg 52%
    20:00 +11°C° 0 mm 3 mps 654 mmHg 53%
    21:00 +12°C° 0 mm 2 mps 654 mmHg 54%
    22:00 +12°C° 0 mm 2 mps 655 mmHg 55%
    23:00 +10°C° 0 mm 2 mps 654 mmHg 56%
    Show more